RH
2 2 2 2 2 3 4 6 7 7 9 10 14 27 35 47 52 76 88 85 84 93 88 76 78 79 98 91 94 81 69 70 64 31 100 97 97 96 96 95 95 96 92 98
2 2 2 2 3 4 6 7 8 10 12 17 23 43 50 55 94 89 93 92 83 74 89 92 87 78 84 99 94 82 91 62 57 37 79 62 93 94 96 96 97 100 95 99
2 2 3 3 4 6 8 8 12 18 27 41 50 46 47 67 74 85 94 92 90 70 67 73 93 79 77 69 72 85 79 53 65 97 89 94 98 96 93 89 95 97 99 100
2 3 4 4 7 9 10 14 25 27 41 51 63 71 69 81 80 99 99 89 92 98 97 79 66 70 60 52 78 88 78 47 55 78 91 100 98 97 97 92 98 97 100 98
4 4 5 7 8 10 15 26 34 45 61 74 72 74 68 63 60 71 78 96 99 76 71 84 92 93 88 80 79 88 87 50 64 100 100 99 93 92 98 98 97 99 100 98
5 6 8 9 12 15 23 53 77 85 85 93 83 73 71 67 65 70 96 100 89 75 69 47 48 73 86 80 81 88 89 80 90 92 100 100 89 100 97 100 100 99 99 100
6 7 9 11 15 30 44 79 100 100 88 96 92 88 75 70 77 70 66 72 84 90 67 41 45 56 61 71 69 81 87 98 100 97 70 97 100 100 99 99 100 100 100 100
6 7 10 16 38 87 99 99 100 100 95 100 93 96 85 76 66 57 76 94 82 76 61 54 64 64 69 74 81 97 97 89 91 93 98 100 100 100 100 100 99 99 99 99
8 11 73 100 100 100 100 99 97 100 99 86 99 97 98 78 64 58 55 61 80 75 64 88 90 94 86 94 99 96 85 89 81 88 98 99 92 100 100 100 98 98 98 99
12 15 20 19 22 28 69 56 93 100 98 95 90 91 98 76 76 71 76 54 84 82 70 88 99 98 98 96 95 96 86 67 80 97 92 99 92 95 97 99 89 98 99 100
13 15 17 19 21 26 57 78 95 99 99 95 86 93 99 81 80 60 54 65 61 94 78 96 97 91 93 93 82 85 75 72 78 85 100 99 95 100 96 93 100 100 100 100
15 16 17 22 54 64 95 97 95 98 93 100 95 98 97 91 68 82 64 66 96 91 80 88 86 87 85 90 89 85 96 93 85 85 99 99 98 99 98 95 99 100 100 100
16 20 15 20 39 29 79 87 100 99 97 99 100 99 96 71 71 65 61 100 100 97 90 95 88 77 89 93 98 96 90 88 93 93 90 98 100 100 100 100 98 99 100 100
15 7 8 11 16 18 36 44 73 92 93 100 100 100 100 77 74 73 66 80 97 97 98 96 100 100 95 94 94 92 97 98 98 97 95 100 100 100 100 100 100 100 96 94
5 6 10 16 18 26 43 54 53 78 100 99 99 98 100 92 81 82 83 98 100 100 100 100 100 100 100 99 100 100 100 100 100 100 100 100 100 99 99 100 100 100 98 91
7 14 17 17 21 37 58 84 94 100 94 99 100 100 100 96 87 78 98 100 100 100 100 100 100 100 100 99 100 99 100 100 100 100 100 100 100 100 99 98 96 95 91 90
16 19 18 20 32 50 62 89 100 100 100 100 100 99 100 99 91 90 98 100 100 100 100 100 100 100 100 100 100 100 100 100 100 100 100 100 100 100 100 100 99 93 87 87
21 19 23 61 70 73 94 100 100 100 100 100 100 100 100 100 100 99 100 97 98 99 100 100 100 100 100 100 100 100 100 100 100 100 100 100 100 100 100 100 100 98 88 84
20 23 40 62 81 89 95 100 100 97 100 100 100 100 100 100 100 100 98 98 97 98 100 100 100 100 100 100 100 100 100 100 100 100 100 100 100 100 100 100 100 100 95 92
21 33 56 70 78 84 89 90 95 97 98 99 100 100 100 93 98 100 100 100 100 100 100 100 100 100 100 100 100 100 100 100 100 100 100 100 100 100 100 100 98 88 74 68
30 56 71 79 79 78 80 88 86 98 99 97 94 95 96 98 100 100 100 100 100 100 100 100 100 100 100 100 100 100 100 100 100 100 100 100 100 100 100 98 88 75 67 64
40 65 89 98 92 90 79 84 90 91 96 87 80 86 92 100 100 100 100 100 100 100 100 100 100 100 100 100 100 100 100 100 100 100 100 100 100 100 100 99 92 79 70 65
57 77 70 84 70 59 63 70 81 81 79 83 82 96 100 100 100 100 100 100 100 100 100 100 100 100 100 100 100 100 100 100 100 100 100 100 100 100 100 100 100 97 84 74
56 67 52 52 67 71 74 70 68 71 68 89 100 100 100 100 100 100 100 100 100 98 97 100 100 100 100 100 100 100 100 100 100 100 100 100 100 100 100 100 100 100 100 96
39 48 48 54 57 63 65 61 59 64 73 99 100 100 100 100 100 100 100 99 100 100 100 100 100 100 100 100 100 100 100 100 100 100 100 100 100 100 100 100 100 100 99 97
30 45 52 54 61 69 72 77 79 78 93 100 100 100 100 98 99 99 100 98 100 100 100 100 100 100 100 100 100 100 100 100 100 100 100 100 100 100 100 100 100 100 100 96
46 56 53 56 56 68 83 90 93 89 88 100 100 95 98 100 93 99 99 100 100 100 100 100 100 100 100 100 100 100 100 100 99 99 99 99 98 98 98 97 95 95 95 94
Wind_Speed
28 29 29 31 32 30 27 25 27 25 24 24 15 17 20 19 22 13 11 10 13 11 18 21 15 11 7 11 7 14 12 12 16 20 7 6 20 23 19 7 9 7 6 5
29 31 32 29 30 29 28 28 28 24 25 11 18 20 23 18 7 11 10 12 12 14 15 13 8 14 12 9 15 11 12 9 11 9 11 19 26 23 15 13 8 10 4 6
31 31 31 31 29 26 27 30 22 21 19 13 20 21 16 13 10 13 16 13 14 21 20 13 11 19 13 14 14 7 10 12 7 4 14 17 12 13 14 10 6 7 10 9
29 30 30 29 28 28 29 27 22 24 19 16 18 14 15 17 14 9 10 16 13 15 20 23 21 19 21 16 8 7 11 11 8 15 14 3 9 9 12 13 4 3 10 11
30 30 28 26 28 30 29 25 26 24 24 20 18 14 16 13 18 21 22 13 15 21 21 19 20 19 15 13 9 9 11 6 11 6 3 1 16 18 8 11 15 16 10 10
29 27 27 26 27 30 28 24 24 27 26 23 19 19 17 16 16 16 13 18 20 20 16 17 17 16 14 14 15 9 5 5 8 2 5 7 4 16 16 13 9 6 5 6
28 27 26 26 27 26 26 21 20 26 31 27 21 18 17 14 14 20 18 18 17 15 16 18 13 10 9 9 5 5 4 6 5 5 8 4 2 2 6 7 11 9 7 6
27 27 26 26 23 19 23 21 20 26 31 29 29 19 18 16 13 16 15 12 13 12 15 13 6 2 2 1 7 5 4 1 1 2 6 4 5 7 6 4 5 10 10 9
26 26 23 21 22 21 24 26 25 25 30 27 22 27 20 15 14 15 12 11 11 13 11 5 3 3 5 1 3 10 3 2 2 1 3 3 1 8 6 2 4 6 7 6
27 26 25 27 30 31 29 28 22 27 28 28 25 23 18 11 14 18 16 11 6 7 3 2 1 1 1 1 2 1 3 1 1 3 2 3 1 1 3 3 3 4 5 6
28 29 31 33 33 33 28 23 19 18 21 27 30 25 10 12 14 10 11 9 7 6 5 3 2 1 2 2 1 1 2 1 1 0 2 1 3 4 5 4 3 4 5 5
30 32 33 35 32 28 22 20 17 19 22 26 18 16 10 9 9 11 10 6 7 4 4 3 2 2 2 4 2 1 2 1 1 1 3 3 1 2 2 2 3 5 5 5
33 36 37 34 30 23 18 19 18 15 11 8 12 8 10 6 2 6 5 4 6 5 6 5 5 4 5 5 4 4 3 3 3 3 4 5 5 2 1 2 3 4 4 4
38 39 35 28 23 21 19 19 17 17 17 16 12 9 6 4 7 8 9 10 8 9 8 7 7 7 6 6 5 7 6 4 5 6 5 5 6 7 6 5 4 6 6 5
37 31 28 23 22 18 15 13 10 6 13 7 6 5 7 6 6 9 9 6 9 7 5 5 6 5 4 7 7 8 8 8 8 7 7 5 5 6 7 7 7 7 7 9
28 24 24 23 19 15 12 7 4 1 1 3 7 6 5 6 5 4 1 4 6 6 5 6 6 5 5 4 4 4 5 5 6 8 9 8 9 8 8 8 7 7 7 7
23 23 25 22 18 13 9 6 7 6 4 5 5 3 3 1 1 2 1 3 3 3 3 4 5 5 5 5 4 5 5 5 4 5 6 6 6 6 7 8 7 7 7 8
23 24 20 15 15 11 6 2 2 3 10 8 4 5 4 0 2 2 2 3 4 3 3 4 5 4 5 2 3 3 3 4 3 4 4 4 5 5 6 6 6 7 8 9
25 21 16 13 9 8 5 7 6 2 4 5 4 6 3 2 1 1 2 1 2 2 2 4 3 4 3 4 3 2 1 2 2 3 4 4 5 5 5 6 6 7 8 9
22 17 12 7 6 5 4 4 2 1 2 8 8 5 0 2 3 4 2 1 1 1 2 3 3 8 5 2 1 1 1 2 3 4 4 5 6 6 6 6 6 7 8 8
16 10 7 6 5 4 2 2 3 4 4 5 8 5 3 2 1 4 2 2 1 2 2 1 3 6 4 3 2 2 3 4 4 5 6 7 7 7 8 8 8 7 7 7
13 8 6 5 4 3 2 5 5 5 3 8 8 4 3 0 2 2 2 3 3 3 4 2 4 4 4 5 5 4 4 6 6 6 7 7 8 8 8 8 8 8 8 7
10 7 5 3 4 5 7 8 6 6 9 9 7 4 2 2 1 1 1 2 3 6 2 4 4 3 5 7 7 7 6 7 7 8 8 8 8 8 9 8 8 8 8 8
6 4 8 8 8 10 9 12 11 10 10 8 7 5 1 1 1 1 2 4 3 3 4 3 4 6 8 8 7 7 7 7 7 8 8 8 8 9 9 9 9 9 9 9
6 6 9 15 14 15 15 14 11 8 7 6 4 3 3 2 2 3 3 2 5 5 3 5 8 8 7 7 7 7 7 7 7 7 8 8 8 8 9 10 10 11 11 11
20 14 13 14 13 11 10 10 9 5 4 4 2 3 3 4 4 3 5 4 5 4 6 7 7 7 7 7 7 7 7 7 7 7 7 7 8 8 9 9 10 10 11 12
15 20 21 19 19 18 16 14 11 10 8 3 3 3 4 4 4 5 5 4 5 6 6 6 7 7 7 7 8 8 8 8 8 8 8 8 8 9 9 10 10 10 10 11
Wind_Direction
311 312 315 318 319 322 322 325 327 326 326 327 325 319 316 315 311 306 295 296 294 304 312 311 309 305 287 291 353 341 335 326 314 322 191 19 10 19 13 322 335 349 88 107
312 315 318 320 320 323 324 328 329 328 329 323 321 316 314 322 285 286 289 290 298 313 306 314 295 298 298 323 333 329 332 322 326 349 294 338 351 358 0 337 342 28 2 109
316 317 319 321 321 322 324 327 329 328 331 323 318 320 322 312 297 298 294 281 308 312 301 292 289 300 298 313 319 289 313 323 322 267 309 316 332 350 357 15 25 69 79 105
317 317 320 319 319 321 325 329 328 327 321 326 331 336 322 306 319 304 282 311 305 308 309 307 299 296 294 300 278 290 316 316 311 324 321 295 55 29 34 60 84 85 125 107
319 320 318 317 318 322 324 327 326 321 323 336 333 332 331 323 319 301 304 298 297 306 300 305 303 305 300 301 290 278 331 300 307 320 5 4 56 43 37 72 81 93 105 93
317 317 316 316 319 320 323 322 320 320 315 320 322 323 325 322 313 320 300 288 298 309 303 310 301 288 289 287 293 300 306 305 320 310 301 289 326 28 36 59 66 78 54 49
317 314 313 314 318 317 316 317 308 304 303 304 306 307 312 316 310 308 318 290 295 304 310 308 301 284 280 271 256 231 236 283 297 312 354 55 163 296 359 27 55 60 46 42
316 312 312 314 316 315 306 308 300 293 291 296 290 293 298 305 307 314 295 298 288 295 315 329 342 24 135 268 207 190 151 198 42 40 56 128 236 282 306 344 17 33 37 22
318 315 317 311 311 311 302 303 296 291 287 295 298 297 281 293 298 312 316 283 283 291 310 318 341 351 327 342 75 107 182 171 15 41 144 189 236 280 261 207 279 358 21 26
317 317 315 314 312 309 303 299 290 293 275 291 296 289 271 278 294 299 301 291 277 268 285 297 355 327 111 68 61 102 55 228 111 144 140 146 331 265 172 234 269 341 0 6
318 319 317 316 312 310 308 306 284 280 287 293 299 291 243 277 289 299 316 278 274 224 243 237 207 140 103 100 75 42 44 53 109 151 147 194 332 192 224 258 308 347 351 351
320 317 317 316 315 314 309 304 296 283 287 284 271 262 265 264 281 293 283 253 214 211 222 202 194 196 207 191 222 203 198 119 130 265 139 204 192 133 126 207 293 325 331 335
322 320 320 319 317 315 298 292 291 291 285 288 215 235 256 247 321 332 297 253 213 207 235 253 237 219 192 190 202 211 239 268 235 218 208 214 206 256 314 302 294 300 316 328
324 323 323 326 320 316 305 293 286 279 279 268 239 237 242 244 303 293 270 274 267 265 251 248 234 218 213 217 228 232 243 251 254 261 257 249 251 254 272 278 286 293 294 303
324 323 325 325 324 322 319 316 291 258 257 174 191 213 232 260 287 294 290 278 264 245 228 230 226 226 219 236 240 240 243 246 240 254 258 250 257 261 259 272 281 291 299 304
328 327 326 325 326 322 320 317 313 7 317 179 193 215 214 266 288 325 269 222 219 220 251 240 239 241 215 223 211 223 239 247 243 247 252 256 263 266 270 276 280 288 294 295
332 329 326 329 331 330 316 280 248 277 252 198 180 208 191 173 344 320 239 218 221 234 231 220 225 221 209 226 218 227 236 242 251 264 266 263 270 276 281 284 289 289 289 288
332 332 332 327 334 341 355 10 234 230 191 177 171 159 181 144 223 216 273 304 291 268 243 222 208 192 194 173 176 194 219 231 250 269 273 289 286 282 280 280 286 294 293 293
335 334 334 329 331 325 321 322 353 8 219 193 158 166 167 177 253 243 317 267 313 273 200 194 174 145 98 120 144 158 230 270 273 274 277 284 287 290 292 291 287 287 291 294
335 337 339 331 338 354 4 21 25 74 75 91 75 75 33 297 259 231 219 256 289 145 124 142 128 94 97 103 119 179 265 284 292 294 297 293 296 297 298 298 295 290 286 285
342 340 336 335 341 352 12 43 52 47 82 41 16 11 1 334 222 202 198 167 170 152 138 168 100 89 63 41 7 331 309 297 293 290 288 288 288 290 294 298 296 296 295 295
349 352 344 344 5 18 40 40 32 30 34 355 340 328 334 304 170 160 166 181 183 111 165 133 87 71 24 350 336 323 308 300 298 297 292 289 288 284 281 280 285 290 295 299
355 1 358 19 31 36 44 25 12 350 345 342 354 323 281 184 128 167 192 150 92 145 127 78 93 2 337 330 325 320 316 307 301 300 296 291 287 284 282 281 281 284 288 292
1 37 37 39 28 17 355 344 341 338 345 348 339 347 319 120 118 121 101 110 139 81 64 70 11 335 325 322 320 317 316 310 306 303 299 294 288 281 278 278 277 277 280 284
53 49 39 22 7 358 347 342 338 330 336 340 342 14 52 86 107 81 100 82 64 65 50 337 330 332 329 325 322 320 318 315 314 312 308 302 295 289 285 281 279 279 280 280
62 60 44 34 25 16 13 14 10 14 355 353 44 75 69 55 52 60 58 62 58 1 336 336 336 335 332 326 323 321 319 318 315 314 310 305 302 298 294 291 288 286 284 284
74 58 50 42 38 38 40 37 40 37 36 65 79 58 66 59 49 55 48 46 354 345 342 336 334 332 328 323 322 319 313 310 309 308 306 304 302 299 297 297 297 294 291 289